EW5549 Weather Reports


time (UTC)temp
C
wind
direction
speed
KPH
gust
KPH
rain 1hr
cm
rain 24hr
cm
rain mn
cm
humidity
%
barometer
mb
20260504151010 10 296 4.8 4.8 0.00 0.00 0.00 53 1017.5
20260504150508 10 239 6.4 8.0 0.00 0.00 0.00 53 1017.6
20260504140933 8 288 6.4 8.0 0.00 0.00 0.00 59 1017.6
20260504140430 8 259 4.8 4.8 0.00 0.00 0.00 59 1017.6
20260504130355 6 293 3.2 3.2 0.00 0.00 0.00 65 1017.2
20260504120318 5 327 1.6 3.2 0.00 0.00 0.00 65 1016.7
20260504110242 6 5 1.6 3.2 0.00 0.00 0.00 61 1016.7
20260504100200 8 355 9.7 11.3 0.00 0.00 0.00 51 1015.8
20260504090122 10 313 6.4 8.0 0.00 0.00 0.00 52 1014.7
20260504081552 11 15 12.9 14.5 0.00 0.00 0.00 51 1012.6
20260504081048 7 316 1.6 3.2 0.00 0.00 0.00 57 1012.9
20260504080545 7 328 1.6 1.6 0.00 0.00 0.00 64 1012.6
20260504050358 13 340 0.0 0.0 0.00 0.00 0.00 33 1011.1
20260504045855 13 340 0.0 0.0 0.00 0.00 0.00 31 1010.9
20260504045350 14 275 1.6 1.6 0.00 0.00 0.00 31 1010.8
20260504044847 13 223 0.0 0.0 0.00 0.00 0.00 32 1011.0
20260504044344 13 228 3.2 3.2 0.00 0.00 0.00 33 1010.9
20260504043842 13 250 3.2 3.2 0.00 0.00 0.00 34 1010.9
20260504043338 12 7 0.0 0.0 0.00 0.00 0.00 36 1011.0
20260504042836 12 20 0.0 0.0 0.00 0.00 0.00 37 1010.8
20260504042332 13 1 0.0 0.0 0.00 0.00 0.00 36 1010.7
20260504041828 13 322 0.0 0.0 0.00 0.00 0.00 36 1010.8
20260504041325 13 349 0.0 0.0 0.00 0.00 0.00 37 1010.7
20260504040821 13 2 0.0 1.6 0.00 0.00 0.00 35 1011.0
20260504040319 13 345 1.6 1.6 0.00 0.00 0.00 36 1010.9
20260504035814 13 139 0.0 1.6 0.00 0.00 0.00 37 1010.6
20260504035312 12 153 4.8 4.8 0.00 0.00 0.00 40 1010.5
20260504034809 12 25 0.0 0.0 0.00 0.00 0.00 40 1010.2
20260504034307 13 26 3.2 3.2 0.00 0.00 0.00 37 1010.5
20260504033804 13 358 1.6 3.2 0.00 0.00 0.00 36 1010.3
20260504033301 13 338 3.2 3.2 0.00 0.00 0.00 37 1010.2
20260504032758 15 345 3.2 3.2 0.00 0.00 0.00 37 1010.3
20260504032255 17 294 8.0 11.3 0.00 0.00 0.00 28 1010.1
20260504031751 17 260 11.3 12.9 0.00 0.00 0.00 27 1010.1
20260504031249 17 276 11.3 12.9 0.00 0.00 0.00 28 1009.9
20260504030745 18 282 14.5 17.7 0.00 0.00 0.00 27 1010.1
20260504030242 18 275 16.1 17.7 0.00 0.00 0.00 27 1010.0
20260504025738 17 280 14.5 16.1 0.00 0.00 0.00 27 1009.9
20260504025236 17 301 11.3 11.3 0.00 0.00 0.00 31 1009.9
20260504024732 17 298 8.0 9.7 0.00 0.00 0.00 32 1010.0
20260504024229 17 294 14.5 16.1 0.00 0.00 0.00 30 1010.0
20260504023726 17 301 11.3 14.5 0.00 0.00 0.00 33 1009.8
20260504023222 17 312 9.7 11.3 0.00 0.00 0.00 33 1009.7
20260504022718 17 295 11.3 14.5 0.00 0.00 0.00 32 1009.4
20260504022215 18 288 12.9 14.5 0.00 0.00 0.00 30 1009.7
20260504021712 18 281 11.3 12.9 0.00 0.00 0.00 31 1009.8
20260504021209 18 326 11.3 11.3 0.00 0.00 0.00 30 1009.7
20260504020706 18 295 14.5 14.5 0.00 0.00 0.00 30 1009.8
20260504020202 19 301 11.3 12.9 0.00 0.00 0.00 29 1009.8
20260504015658 20 294 14.5 16.1 0.00 0.00 0.00 27 1009.8
20260504015154 20 295 9.7 11.3 0.00 0.00 0.00 28 1009.6
20260504014650 20 294 9.7 12.9 0.00 0.00 0.00 29 1009.6
20260504014148 20 305 9.7 12.9 0.00 0.00 0.00 28 1009.8
20260504013646 21 308 14.5 16.1 0.00 0.00 0.00 26 1009.6
20260504013142 21 318 11.3 12.9 0.00 0.00 0.00 25 1009.8
20260504012639 21 319 12.9 14.5 0.00 0.00 0.00 25 1009.9
20260504012137 21 279 12.9 16.1 0.00 0.00 0.00 24 1009.7
20260504011634 21 305 12.9 14.5 0.00 0.00 0.00 25 1009.7
20260504011130 21 271 14.5 16.1 0.00 0.00 0.00 26 1009.9
20260504010626 22 298 16.1 17.7 0.00 0.00 0.00 26 1009.8
20260504010122 22 297 12.9 12.9 0.00 0.00 0.00 27 1009.9
20260504005619 22 303 11.3 14.5 0.00 0.00 0.00 27 1009.8
20260504005116 22 321 9.7 11.3 0.00 0.00 0.00 28 1009.8
20260504004614 22 312 12.9 14.5 0.00 0.00 0.00 24 1009.8
20260504004111 22 293 11.3 14.5 0.00 0.00 0.00 25 1009.8
20260504003607 22 290 9.7 11.3 0.00 0.00 0.00 27 1010.0
20260504003104 23 289 12.9 12.9 0.00 0.00 0.00 27 1010.2
20260504002601 23 287 16.1 17.7 0.00 0.00 0.00 26 1010.1
20260504002058 23 296 12.9 14.5 0.00 0.00 0.00 26 1010.0
20260504001556 23 310 12.9 14.5 0.00 0.00 0.00 27 1010.0
20260504001052 23 317 11.3 16.1 0.00 0.00 0.00 25 1010.3
20260504000549 23 28 8.0 12.9 0.00 0.00 0.00 24 1010.1
20260504000046 23 322 14.5 17.7 0.00 0.00 0.00 26 1010.1
20260503235545 23 306 11.3 12.9 0.00 0.00 0.00 25 1010.3
20260503235041 23 316 8.0 11.3 0.00 0.00 0.00 24 1010.5
20260503234539 23 345 6.4 9.7 0.00 0.00 0.00 23 1010.1
20260503234037 23 350 9.7 11.3 0.00 0.00 0.00 25 1010.2
20260503233533 23 300 14.5 17.7 0.00 0.00 0.00 24 1010.2
20260503233029 23 332 16.1 20.9 0.00 0.00 0.00 23 1010.3
20260503232526 23 342 11.3 16.1 0.00 0.00 0.00 22 1010.2
20260503232024 23 292 16.1 17.7 0.00 0.00 0.00 22 1010.3
20260503231522 23 285 16.1 16.1 0.00 0.00 0.00 22 1010.5
20260503231018 23 317 4.8 8.0 0.00 0.00 0.00 22 1010.5
20260503230515 23 346 8.0 9.7 0.00 0.00 0.00 22 1010.7
20260503230012 23 236 8.0 8.0 0.00 0.00 0.00 21 1010.7
20260503225509 23 310 11.3 12.9 0.00 0.00 0.00 24 1010.8
20260503225004 23 326 4.8 8.0 0.00 0.00 0.00 24 1010.8
20260503224502 23 288 4.8 8.0 0.00 0.00 0.00 22 1010.7
20260503223959 23 256 11.3 12.9 0.00 0.00 0.00 22 1010.9
20260503223457 23 281 12.9 14.5 0.00 0.00 0.00 21 1010.9
20260503222952 23 288 12.9 16.1 0.00 0.00 0.00 22 1011.0
20260503222451 23 297 24.1 25.7 0.00 0.00 0.00 23 1011.0
20260503221949 23 309 11.3 14.5 0.00 0.00 0.00 22 1011.2
20260503221447 23 313 6.4 9.7 0.00 0.00 0.00 22 1011.0
20260503220943 23 289 17.7 17.7 0.00 0.00 0.00 22 1011.2
20260503220439 23 302 16.1 17.7 0.00 0.00 0.00 23 1011.1
20260503215937 23 328 4.8 4.8 0.00 0.00 0.00 23 1011.5
20260503215433 23 294 11.3 14.5 0.00 0.00 0.00 23 1011.6
20260503214931 23 277 9.7 9.7 0.00 0.00 0.00 26 1011.5
20260503214429 23 254 9.7 12.9 0.00 0.00 0.00 27 1011.6
20260503213926 23 281 16.1 16.1 0.00 0.00 0.00 28 1011.7
20260503213424 24 294 6.4 11.3 0.00 0.00 0.00 27 1011.7
20260503212920 23 229 6.4 8.0 0.00 0.00 0.00 28 1011.7
20260503212418 23 333 0.0 0.0 0.00 0.00 0.00 27 1011.9
20260503211915 23 295 11.3 12.9 0.00 0.00 0.00 27 1011.8
20260503211412 23 272 8.0 9.7 0.00 0.00 0.00 26 1012.2
20260503210907 23 148 3.2 3.2 0.00 0.00 0.00 28 1012.0
20260503210404 23 65 6.4 8.0 0.00 0.00 0.00 31 1012.2
20260503205859 23 17 6.4 8.0 0.00 0.00 0.00 29 1012.4
20260503205356 23 355 3.2 4.8 0.00 0.00 0.00 30 1012.5
20260503204852 23 96 6.4 8.0 0.00 0.00 0.00 29 1012.6
20260503204349 23 354 4.8 8.0 0.00 0.00 0.00 29 1012.6
20260503203847 22 318 6.4 8.0 0.00 0.00 0.00 31 1012.6
20260503203344 22 29 6.4 9.7 0.00 0.00 0.00 30 1012.8
20260503202841 23 60 6.4 8.0 0.00 0.00 0.00 30 1012.7
20260503202339 22 138 6.4 8.0 0.00 0.00 0.00 29 1012.9
20260503201838 22 61 1.6 1.6 0.00 0.00 0.00 33 1012.9
20260503201334 22 10 3.2 4.8 0.00 0.00 0.00 28 1013.1
20260503200832 21 292 1.6 3.2 0.00 0.00 0.00 28 1013.1
20260503200327 22 18 1.6 3.2 0.00 0.00 0.00 34 1013.0
20260503195825 22 127 6.4 8.0 0.00 0.00 0.00 33 1013.1
20260503195321 22 66 1.6 1.6 0.00 0.00 0.00 35 1013.2
20260503194819 22 78 3.2 4.8 0.00 0.00 0.00 34 1013.5
20260503194314 21 300 9.7 11.3 0.00 0.00 0.00 34 1013.4
20260503193811 21 267 3.2 3.2 0.00 0.00 0.00 37 1013.6
20260503193307 22 27 1.6 1.6 0.00 0.00 0.00 32 1013.8
20260503192803 21 334 1.6 3.2 0.00 0.00 0.00 34 1013.8
20260503192258 21 278 11.3 12.9 0.00 0.00 0.00 34 1013.9
20260503191755 21 318 4.8 8.0 0.00 0.00 0.00 34 1013.8
20260503191252 21 51 3.2 3.2 0.00 0.00 0.00 34 1013.9
20260503190748 21 273 9.7 11.3 0.00 0.00 0.00 35 1013.9
20260503190245 21 51 3.2 3.2 0.00 0.00 0.00 35 1014.4
20260503185743 21 64 3.2 4.8 0.00 0.00 0.00 37 1014.2
20260503185238 21 22 1.6 1.6 0.00 0.00 0.00 38 1014.4
20260503184733 20 63 3.2 3.2 0.00 0.00 0.00 38 1014.2
20260503184230 20 91 3.2 4.8 0.00 0.00 0.00 38 1014.6
20260503183726 20 147 6.4 8.0 0.00 0.00 0.00 37 1014.6
20260503183223 20 261 1.6 3.2 0.00 0.00 0.00 37 1014.9
20260503182721 20 55 1.6 3.2 0.00 0.00 0.00 39 1014.8
20260503182220 20 63 1.6 1.6 0.00 0.00 0.00 39 1014.9
20260503181716 20 22 1.6 1.6 0.00 0.00 0.00 41 1014.8
20260503181213 20 98 0.0 1.6 0.00 0.00 0.00 38 1015.0
20260503180709 19 55 1.6 1.6 0.00 0.00 0.00 41 1015.0
20260503180208 18 86 1.6 3.2 0.00 0.00 0.00 41 1015.3
20260503175704 18 354 3.2 3.2 0.00 0.00 0.00 40 1015.5
20260503175202 19 75 3.2 4.8 0.00 0.00 0.00 40 1015.6
20260503174658 18 20 1.6 1.6 0.00 0.00 0.00 43 1015.6
20260503174156 17 84 6.4 8.0 0.00 0.00 0.00 43 1015.8
20260503173650 17 39 0.0 0.0 0.00 0.00 0.00 42 1015.8
20260503173147 17 77 6.4 8.0 0.00 0.00 0.00 43 1015.9
20260503172644 17 101 1.6 3.2 0.00 0.00 0.00 44 1016.1
20260503172141 17 59 0.0 1.6 0.00 0.00 0.00 46 1016.0
20260503171637 17 116 6.4 8.0 0.00 0.00 0.00 44 1016.3
20260503171135 17 55 3.2 3.2 0.00 0.00 0.00 48 1016.4
20260503170632 16 50 1.6 3.2 0.00 0.00 0.00 50 1016.3
20260503170129 16 30 1.6 1.6 0.00 0.00 0.00 52 1016.3